CZ-3A R/B, 41435

Orbit data source: Space-Track

CZ-3A R/B, 41435 is space debris in HEO originally from a launch on Tue, 29 Mar 2016 UTC launched from the Xichang Space Center, China (XSC). Debris objects in space refer to the collection of defunct objects orbiting the Earth. Examples of debris include non-operational satellites, rocket bodies, and fragments generated from explosions, collisions, or faulty payload assembly.

Loading next visibility...
Identifier
41435, 2016-021B
Orbit
HEO
Country
Flag of CNCN / PRC
Related business
Manufacturer
CALT
Mission
Spacecraft
Bus & Motor
CZ-3A STAGE 3, Unknown motor
Mass
~2,800 kg wet, ~2,800 kg dry
Launch date (UTC)
2016-03-29 (10 years ago)
Launch vehicle
Unknown
Launch site
Xichang Space Center, China (XSC)
Object type
Payload
Rocket body
Debris
Shape & HBR
Cyl + 1 Nozzle, 6.2 m
Radar Cross Section
32.704 m², Large (>1 m²)

Expand to show TLE details & history
Last TLE update: 5 days ago

TLE from 5 days ago
0 CZ-3A R/B
1 41435U 16021B   25306.54452730 -.00000063  00000-0  00000-0 0  9993
2 41435  55.0698  44.0400 6640647 247.4351  32.7210  2.39504311 83557
Epoch: 2025-11-02T13:04Z
TLE epoch observation values (Epoch: 2025-11-02T13:04:07.158Z)
Latitude
0.00001°
Longitude
165.94696°
Altitude
11,377.577 km
Speed
5.292 km/s
True Right ascension
02h 56m 08s
True Declination
0° 00' 00"
Sunlit
Object was in full shadow at epoch
Visualization orbit readout
Latitude
Unknown
Longitude
Unknown
Altitude
Unknown
Speed
Unknown
Apparent Right ascension
Unknown
Apparent Declination
Unknown
Sunlit
N/A
Visualization observer readout
Local Sidereal Time
11:54:10
Azimuth
Unknown
Elevation
Unknown
Doppler factor
Unknown
Orbital elements
Apogee altitude
32,889.016 km
Perigee altitude
1,548.972 km
Semi-major axis
23,597.131 km
Eccentricity
0.66406
Inclination
55.0698°
RAAN
44.04°
Arg. of periapsis
247.4351°
True anomaly
112.66103°
Mean anomaly
32.721°
Eccentric anomaly
67.99812°
Mean motion
0.59876 °/min
Orbital period
601.24 mins
BSTAR
0
Loading maneuver chart data...
Computing Atmospheric mass density...
Loading historical data...
Loading historical data...
Loading historical data...
Loading historical data...
Loading historical data...
Loading historical data...
Loading historical data...
Other satellites on launch #21 in the year 2016 (2016-03-29 UTC)

Documentation

Showing up to 5 results
|